Location: *
(6.3167°N, 10.8000°W)
Time: 14:37:40
(UTC+00:00)

Daily predictions for brighter satellites

Satellite Brightness Start Highest point End
(mag) Time Altitude Azimuth Time Altitude Azimuth Time Altitude Azimuth
CZ-3C R/B 1.8 19:09:29 10° WNW 19:12:53 89° NNE 19:25:03 10° ESE
Cosmos 1400 Rocket 3.1 19:11:02 10° NNE 19:14:41 42° E 19:18:21 10° SSE
Cosmos 2026 Rocket 4.3 19:08:55 10° N 19:15:16 77° W 19:21:38 10° S
CENTAUR R/B 3.9 19:07:57 10° N 19:15:40 36° ENE 19:23:14 10° SE
Cosmos 1812 3.8 19:13:56 10° NNE 19:17:02 23° E 19:20:09 10° SE
GPS 2-04 Rocket1 3.1 19:13:58 10° NW 19:17:48 50° NE 19:21:47 10° ESE
Palapa 6 Rocket 3.3 19:14:28 10° NW 19:18:32 46° NNE 19:22:11 10° E
BREEZE M DEB (TANK) 4.4 19:20:26 10° NNE 19:23:04 21° ENE 19:30:27 10° ESE
SAR-Lupe-2 3.5 19:20:29 10° NNE 19:24:02 76° ESE 19:27:37 10° S
CZ-4 R/B 1.4 19:23:38 10° S 19:27:41 86° W 19:31:38 10° NNW
Cosmos 2242 Rocket 3.6 19:32:09 10° N 19:36:32 56° E 19:40:52 10° SSE
BREEZE M DEB (TANK) 1.4 19:37:13 10° NW 19:39:35 68° SW 19:41:32 14° SSE
ARIANE 5 DEB (SYLDA) 3.3 19:35:55 10° W 19:41:20 43° S 19:42:56 21° SE
ARIANE 5 DEB (SYLDA) 4.3 19:37:48 10° SW 19:41:30 33° S 19:45:23 17° ESE
Meteor 1-27 Rocket 3.7 19:38:34 10° N 19:44:16 81° E 19:49:51 10° S
Unknown 4.3 19:43:20 10° N 19:45:40 21° NE 19:45:59 20° ENE
Cosmos 1833 Rocket 3.8 19:42:16 10° SSE 19:46:12 20° ESE 19:50:09 10° ENE
CSL-04 Debris 4.4 19:43:24 10° S 19:48:49 72° WSW 19:54:13 10° NNW
YAOGAN 1 3.4 19:49:57 10° S 19:54:10 53° WSW 19:58:22 10° NNW
ATLAS 3B R/B 2.7 19:48:31 10° NNW 19:55:23 72° ENE 20:02:26 11° SSE
NOAA 11 4.4 19:50:23 10° SSE 19:55:37 49° ENE 20:00:52 10° N
Ariane H10 3.7 19:55:35 10° SW 19:56:56 13° S 19:57:08 13° S
Cosmos 1315 Rocket 2.8 19:54:29 10° N 19:58:32 61° E 20:01:50 15° SSE
Cosmos 2369 Rocket 2.5 19:56:25 10° NNW 20:01:58 67° WSW 20:07:30 10° S
Cosmos 1703 Rocket 3.6 19:57:50 10° N 20:02:07 54° E 20:04:52 21° SSE
CZ-2D R/B 3.1 19:59:17 10° SSE 20:03:09 87° ENE 20:07:00 10° N
Unknown 2.6 20:05:21 10° NW 20:07:50 71° NW 20:07:50 71° NW
Cosmos 2263 4.2 20:04:09 10° NNW 20:09:46 86° WSW 20:14:59 12° SSE
GPS 2-12 Rocket1 4.1 20:07:38 10° W 20:12:11 42° NNW 20:14:49 22° NE
SEDSat Delta rocket 4.0 20:09:07 10° WSW 20:13:27 47° NNW 20:17:07 17° NE
Cosmos 1733 Rocket 3.2 20:14:30 47° ENE 20:14:30 47° ENE 20:18:11 10° NNE
Cosmos 2266 Rocket 3.9 20:08:54 10° N 20:14:55 81° W 20:20:59 10° S
ARIANE 5 DEB (SYLDA) 3.9 20:13:54 10° SW 20:14:08 12° SW 20:14:08 12° SW
Cosmos 2084 3.8 20:12:00 10° NW 20:16:00 58° WSW 20:17:51 29° S
Ariane H10 4.4 19:53:38 10° W 20:24:19 73° S 20:26:19 44° ESE
HJ-1C 4.3 20:30:30 46° WNW 20:30:30 46° WNW 20:33:18 10° NNW
COSMOS 2406 4.5 20:26:59 10° SW 20:32:15 40° WNW 20:37:33 10° N
Atlas Centaur 2 1.7 20:28:33 10° WNW 20:32:42 63° SSW 20:32:55 62° SSW
Cosmos 1898 Rocket 3.6 20:30:50 10° SSW 20:36:07 74° WNW 20:41:23 10° N
Ariane Rocket 4.2 20:35:26 10° S 20:40:07 39° WSW 20:44:48 10° NW
Cosmos 1553 Rocket 4.0 20:34:20 10° S 20:40:29 78° W 20:46:44 10° N
ADEOS Rocket 3.3 20:36:38 10° NNE 20:43:25 89° E 20:50:56 10° SSW
H-2A R/B 4.3 20:49:53 13° NNE 20:49:53 13° NNE 20:50:23 10° NNE
Sakura Rocket 4.3 20:43:38 10° NW 20:46:05 32° NW 20:46:05 32° NW
H-2A ROCKET BODY 3.5 20:15:27 10° WNW 20:52:15 69° SW 20:54:47 49° SSE
Cosmos 1656 Rocket 4.1 20:50:55 10° NNW 20:56:17 55° WSW 20:56:50 52° SW
Ariane H10+ 4.2 20:54:34 10° SW 20:57:05 13° SSW 20:57:05 13° SSW
CENTAUR R/B 4.4 20:58:31 10° NW 21:06:17 37° WSW 21:12:34 15° S
S3M 4.5 21:00:20 10° SSW 21:06:35 59° W 21:12:45 10° N
Ariane H10 4.3 20:50:28 10° WSW 21:11:52 41° S 21:11:52 41° S
Centaur D-1A AC-31 4.4 21:21:46 10° SSW 21:22:06 11° SSW 21:22:06 11° SSW
Cosmos 1833 Rocket 4.4 21:25:02 10° SW 21:29:49 29° WNW 21:34:37 10° NNW
